ARKTIKA-M 2

Last updated on Fri Sep 05 2025 00:02:21 GMT+0000 (Coordinated Universal Time)

1 58584U 23198A 25245.63669142 .00000141 00000+0 00000+0 0 9992 2 58584 63.2042 185.8992 6865009 268.5190 18.6674 2.00594607 12554
UTC large
Height (km)
Speed (km/s)
/
Latitude / Longitude
Inclination (degrees)
Orbital Period (minutes)
Azimuth
Elevation
Range (km)
Doppler Factor

Next 0 passes for location: London (51.5072 / 0.1276)

Sorry there are no passes over London.